Regional Weather Roundup
Issued by NWS Raleigh/Durham, NC

Home | Current Version | Previous Version | Text Only | Print | Product List | Glossary On
Versions: 1 2 3 4 5 6 7 8 9 10 11 12 13 14 15 16 17 18 19 20 21 22 23 24 25 26 27 28 29 30 31 32 33 34 35 36 37 38 39 40 41 42 43 44 45 46 47 48 49 50
000
ASUS42 KRAH 010510
RWRRAH
NORTH CAROLINA WEATHER ROUNDUP
NATIONAL WEATHER SERVICE RALEIGH NC
100 AM EDT TUE SEP 01 2015

NOTE: "FAIR" INDICATES FEW OR NO CLOUDS BELOW 12,000 FEET WITH NO
SIGNIFICANT WEATHER AND/OR OBSTRUCTIONS TO VISIBILITY.

NCZ001-053-055-056-065-067-010600-
WESTERN NORTH CAROLINA

CITY           SKY/WX    TMP DP  RH WIND       PRES   REMARKS
ASHEVILLE      CLEAR     69  65  86 CALM      30.19F
JEFFERSON      CLEAR     64  57  79 CALM      30.24S
MORGANTON      CLEAR     67  65  93 CALM      30.18S
HICKORY        CLEAR     72  65  78 CALM      30.13S
RUTHERFORDTON  CLOUDY    73  68  86 CALM      30.13F
MOUNT AIRY     CLEAR     70  67  90 CALM      30.17R
BOONE          CLEAR     62  62 100 CALM      30.25S
$$

NCZ021-022-025-041-071-084-088-010600-
CENTRAL NORTH CAROLINA

CITY           SKY/WX    TMP DP  RH WIND       PRES   REMARKS
CHARLOTTE      CLEAR     73  68  84 CALM      30.12S
GREENSBORO     CLEAR     71  68  90 CALM      30.12R
WINSTON-SALEM  CLEAR     71  68  90 CALM      30.14S
RALEIGH-DURHAM MOCLDY    70  68  94 CALM      30.09F FOG
FORT BRAGG     PTCLDY    71  69  94 CALM      30.07S
FAYETTEVILLE   MOCLDY    73  71  93 NW3       30.07S
BURLINGTON     CLEAR     67  67 100 CALM      30.11S
LAURINBURG     CLEAR     67  65  93 CALM      30.09S FOG
$$

NCZ011-015-027-028-043-044-047-080-103-010600-
NORTHEASTERN NORTH CAROLINA

CITY           SKY/WX    TMP DP  RH WIND       PRES   REMARKS
ROCKY MT-WILSO MOCLDY    72  71  97 CALM      30.07S FOG
GREENVILLE     MOCLDY    73  73 100 CALM      30.08S
WASHINGTON     CLOUDY    73  73  99 CALM      30.06S
ELIZABETH CITY LGT RAIN  74  73  97 E3        30.07F
MANTEO         CLOUDY    72  72  99 CALM      30.06F
CAPE HATTERAS  CLEAR     79  74  84 S9        30.05F
$$

NCZ078-087-090-091-093-098-101-010600-
SOUTHEASTERN NORTH CAROLINA

CITY           SKY/WX    TMP DP  RH WIND       PRES   REMARKS
LUMBERTON      CLEAR     71  69  93 W3        30.07F
GOLDSBORO      MOCLDY    74  73  99 CALM      30.05S
KINSTON        CLOUDY    75  74  97 CALM      30.07S
KENANSVILLE      N/A     74  73  96 W3        30.07S
NEW BERN       MOCLDY    75  73  93 CALM      30.06S
CHERRY POINT   CLOUDY    76  74  93 CALM      30.05F
BEAUFORT       CLOUDY    77  77 100 CALM      30.04F
JACKSONVILLE   MOCLDY    74  73  97 NW6       30.04S
WILMINGTON     CLOUDY    75  74  96 W5        30.05S
$$



USA.gov is the U.S. government's official web portal to all federal, state and local government web resources and services.